Tracking 28565 objects as of 3-Mar-2024
HD Live streaming from Space Station
objects crossing your sky now

HUYGENS

Track HUYGENS now!
10-day predictions


NORAD ID: 55093
Int'l Code: 2023-001CN
Perigee: 502.0 km
Apogee: 523.0 km
Inclination: 97.4 °
Period: 94.7 minutes
Semi major axis: 6883 km
RCS: Unknown
Launch date: January 3, 2023
Source: Norway (NOR)
Launch site: AIR FORCE EASTERN TEST RANGE (AFETR)
Your satellite tracking list
Your tracking list is empty




NASA's NSSDC Master Catalog

Two Line Element Set (TLE):
1 55093U 23001CN  24063.15965764  .00006999  00000-0  32564-3 0  9992
2 55093  97.4416 124.0848 0015246 171.0924 189.0585 15.20156091 64505
Source of the keplerian elements: AFSPC